Location: Dreiligass
(46.7733°N, 7.6768°E)
Time: 02:38:36
(UTC+00:00)

Daily predictions for brighter satellites

Satellite Brightness Start Highest point End
(mag) Time Altitude Azimuth Time Altitude Azimuth Time Altitude Azimuth
CENTAUR R/B 4.3 02:14:21 36° E 02:14:21 36° E 02:19:39 10° ESE
Cosmos 2263 Rocket 4.0 03:01:26 27° ENE 03:01:26 27° ENE 03:04:24 10° NE
SJ 16-02 4.2 03:08:47 15° ENE 03:08:47 15° ENE 03:10:07 10° NE
CZ-4C R/B 4.3 03:25:49 15° SE 03:28:08 21° ESE 03:32:09 10° ENE
BREEZE-M DEB (TANK) 4.4 03:30:33 79° N 03:30:39 79° N 03:35:06 10° E
ATLAS 3B R/B 3.6 03:30:35 38° N 03:32:04 43° NE 03:38:49 10° ESE
Cosmos 1943 4.2 03:36:00 40° SE 03:36:00 40° SE 03:39:31 10° SSE
Lacrosse 4 Rocket 3.7 03:38:11 22° ESE 03:38:11 22° ESE 03:39:53 10° SE
Cosmos 2227 Rocket 4.5 03:57:13 12° N 03:57:13 12° N 03:57:40 10° N
ALOS 3.2 03:49:43 10° NNE 03:53:16 44° NE 03:53:16 44° NE
NOSS 3-2 (C) 4.1 04:00:07 58° WSW 04:00:18 58° WSW 04:08:38 10° SSE
NOSS 3-4 (A) 3.3 04:00:50 70° SSW 04:01:32 82° SE 04:07:52 10° NE
NOSS 3-4 (C) 3.3 04:00:54 68° SSW 04:01:40 81° SE 04:08:00 10° NE
CENTAUR R/B 3.2 04:01:36 57° WSW 04:02:18 58° WSW 04:10:54 10° SSE
ARGOS Delta rocket 4.1 04:00:15 10° NNE 04:04:43 65° NNE 04:04:43 65° NNE
Cosmos 158 Rocket 3.9 04:10:38 73° NE 04:10:52 75° ENE 04:15:50 10° SSE
SL-4 R/B 3.4 04:15:02 30° NE 04:15:02 30° NE 04:17:15 10° ENE
Cosmos 1151 Rocket 3.8 04:17:01 42° SSE 04:17:01 42° SSE 04:19:53 10° S
Cosmos 1782 3.5 04:16:35 49° NE 04:17:02 52° ENE 04:20:58 10° SSE
SKYMED 2 4.3 04:13:18 10° SSE 04:17:30 52° ENE 04:19:24 29° N
Cosmos 1844 Rocket 4.2 04:12:34 10° S 04:17:38 35° ESE 04:22:43 10° NE
ATLAS 2AS CENTAUR R/B 3.0 04:15:30 22° SW 04:21:10 87° SE 04:29:04 10° NE
ERS-2 4.3 04:18:13 10° SSE 04:19:17 19° SSE 04:19:17 19° SSE
Cosmos 1680 Rocket 3.6 04:20:02 38° N 04:22:07 74° ENE 04:27:25 10° SSE
ATLAS 5 CENTAUR R/B 3.7 04:31:18 19° N 04:31:18 19° N 04:32:15 10° NNE
Atlas Centaur 2 4.4 04:26:40 12° SSW 04:29:29 16° S 04:32:53 10° SE
RESURS DK-1 3.4 04:27:44 10° S 04:31:43 46° ESE 04:35:43 10° NE
CRYOSAT 2 4.3 04:27:40 10° S 04:32:32 83° E 04:37:26 10° N
ATLAS CENTAUR R/B 1.8 04:32:06 45° NNE 04:32:32 48° NE 04:36:20 10° SE
Lacrosse 5 1.7 04:32:02 54° SW 04:33:13 90° SSW 04:38:19 10° NE
ADEOS 3.4 04:28:56 10° NNE 04:34:10 76° WNW 04:39:23 10° SSW
Cosmos 1328 Rocket 3.4 04:35:39 70° W 04:35:39 70° W 04:40:01 10° S
Cosmos 2112 Rocket 4.0 04:38:53 27° NNW 04:41:53 89° WSW 04:47:14 10° SSE
Cosmos 2263 Rocket 2.6 04:43:11 39° NW 04:43:11 39° NW 04:48:26 10° NNE
Gbstr 26 Del rocket 2.5 04:43:34 75° SW 04:43:38 75° SSW 04:47:30 10° SE
SJ 16-02 1.6 04:45:52 48° NW 04:45:52 48° NW 04:49:40 10° NNE
Cosmos 1898 Rocket 3.6 04:47:30 10° SSW 04:52:49 83° ESE 04:58:11 10° NNE
Meteor 1-26 Rocket 4.3 04:48:59 18° NNW 04:53:12 53° W 04:58:38 10° S
FALCON 9 DEB 2.7 04:56:35 81° WSW 04:56:43 88° NNW 04:59:57 10° ENE
FALCON 9 DEB 2.7 04:56:45 81° WNW 04:56:50 83° NNW 05:00:04 10° ENE
FENGYUN 3A 3.9 04:53:52 10° N 04:58:57 42° WNW 05:04:00 10° SW
Envisat 4.4 04:54:36 10° NNE 04:59:22 40° E 05:04:08 10° SSE
Cosmos 1743 Rocket 3.8 04:55:50 10° S 05:00:16 73° E 05:04:45 10° NNE
Cosmos 1408 Rocket 3.6 04:57:53 10° SSW 05:02:16 58° WNW 05:06:41 10° N
H-2A R/B 4.4 04:59:23 10° NE 05:02:47 29° E 05:06:09 10° SSE
Cosmos 2082 Rocket 4.5 04:59:56 10° N 05:03:43 18° NE 05:07:31 10° E
Cosmos 2181 Rocket 4.2 04:58:25 10° NNW 05:04:18 46° W 05:10:05 10° SSW
COSMO-SKYMED 1 2.7 05:01:19 10° S 05:05:33 51° W 05:08:00 23° NNW
USA 307 4.0 05:05:08 26° NNW 05:06:37 32° N 05:10:32 10° ENE
Cosmos 1937 Rocket 3.5 05:04:45 10° SSW 05:09:54 84° ESE 05:15:07 10° NNE
USA 308 4.0 05:11:14 24° NW 05:13:00 33° N 05:16:56 10° ENE
Lacrosse 4 Rocket 3.0 05:14:32 19° WSW 05:14:32 19° WSW 05:17:08 10° SSW
Meteor 2-3 Rocket 4.2 05:09:09 10° SW 05:14:28 39° WNW 05:19:54 10° N
Cosmos 1833 Rocket 4.3 05:09:35 10° N 05:14:30 30° NE 05:19:24 10° ESE
CZ-4C R/B 2.0 05:11:06 12° SW 05:15:48 67° NW 05:21:52 10° NE
MOS 1 Rocket 3.5 05:11:05 10° SSE 05:15:54 84° ENE 05:21:03 10° NNW
Cosmos 2154 Rocket 4.2 05:09:53 10° S 05:16:05 78° E 05:22:23 10° N
CZ-4B R/B 3.1 05:13:15 10° N 05:17:41 57° WNW 05:22:00 10° SSW
Cosmos 1689 Rocket 2.8 05:15:55 10° SSW 05:18:12 33° WSW 05:18:12 33° WSW
Meteor 1-27 Rocket 4.4 05:13:05 10° N 05:18:47 60° ENE 05:24:34 10° SSE
Cosmos 1805 Rocket 4.3 05:15:07 10° S 05:19:27 58° E 05:23:51 10° NNE
FALCON 9 DEB 2.9 05:18:33 37° W 05:19:35 61° NNW 05:22:47 10° ENE
Meteor 1-10 Rocket 4.1 05:15:15 10° NNW 05:20:50 85° W 05:26:27 10° S
SAR-Lupe-4 4.5 05:19:22 10° SSW 05:22:27 27° W 05:22:38 27° W
ATLAS 3B R/B 2.9 05:17:51 18° NW 05:23:00 56° WSW 05:30:00 10° SSE
Aureole 2 Rocket 2.0 05:21:19 10° SSW 05:23:50 64° ESE 05:26:21 10° NNE
COSMOS 2406 4.4 05:19:18 10° NNW 05:24:45 41° NE 05:30:11 10° SE
Cosmos 1862 3.2 05:22:59 10° SSW 05:27:01 68° W 05:31:05 10° N
YAOGAN 6 2.9 05:24:57 10° NNE 05:28:27 67° E 05:31:54 10° S
Genesis I 3.2 05:24:54 11° SW 05:28:31 56° NW 05:32:19 10° NNE
deb Chang Zheng 4 4.4 05:27:38 10° N 05:31:19 27° WNW 05:35:00 10° WSW
ALOS 3.5 05:28:00 10° NNW 05:31:21 20° WNW 05:31:45 20° WNW
Cosmos 2278 Rocket 4.5 05:28:26 10° SSE 05:33:08 28° ESE 05:37:52 10° NE
Cosmos 858 Rocket 4.5 05:29:04 10° SSW 05:34:14 63° WNW 05:39:28 10° NNE
Cosmos 2327 Rocket 4.4 05:29:26 10° SSW 05:35:31 75° W 05:41:38 10° N
Cosmos 990 Rocket 4.4 05:30:45 10° SW 05:35:40 40° WNW 05:40:39 10° N
Cosmos 2074 Rocket 4.1 05:31:01 10° SSW 05:37:00 50° WNW 05:43:03 10° N
PSLV R/B 3.6 05:33:24 10° N 05:37:17 74° WNW 05:41:03 10° SSW
ASTRO F (AKARI) 4.4 05:36:13 10° N 05:39:14 47° WNW 05:42:15 10° SSW
Meteor 1-31 Rocket 4.3 05:38:30 10° NNW 05:40:29 17° NW 05:40:29 17° NW
USA 305 3.8 05:38:55 16° NW 05:42:00 39° NNE 05:46:03 10° E
BREEZE M DEB (TANK) 3.2 05:34:55 10° SW 05:42:16 55° SSE 05:44:58 10° ENE
Cosmos 405 Rocket 2.8 05:39:18 10° SSW 05:42:53 48° WNW 05:46:33 10° N
SL-24 DEB 4.2 05:38:17 10° S 05:43:04 80° W 05:47:52 10° N
EO 1 Delta rocket 4.3 05:42:07 10° SSW 05:46:53 42° W 05:51:17 10° NNW
Cosmos 1812 3.2 05:43:37 10° NNW 05:47:12 37° W 05:50:45 10° SSW
Cosmos 1295 Rocket 4.4 05:42:23 10° SSW 05:48:28 75° W 05:54:36 10° N
Cosmos 2228 Rocket 3.5 05:45:33 10° NNW 05:49:43 41° W 05:53:50 10° SSW
USA 306 3.7 05:47:01 14° NW 05:50:28 41° NNE 05:54:34 10° E
Cosmos 1633 Rocket 4.1 05:48:45 10° S 05:53:02 51° E 05:57:19 10° NNE
NOSS 3-4 (A) 4.3 05:48:19 12° W 05:53:09 30° NNW 05:58:49 10° NNE
NOSS 3-4 (C) 4.3 05:48:24 12° W 05:53:16 30° NNW 05:58:57 10° NNE
SL-4 R/B 2.4 05:50:37 14° WNW 05:53:40 42° N 05:57:08 10° E
Cosmos 2184 Rocket 4.4 05:48:47 10° SW 05:54:39 39° WNW 06:00:37 10° N
USA 234 3.6 05:51:29 10° NE 05:58:01 72° SE 06:04:33 10° SW
Cosmos 1356 3.5 05:55:07 10° S 05:58:32 80° E 06:01:57 10° NNE
FALCON 9 DEB 3.7 05:56:58 13° W 05:59:34 35° NNW 06:02:34 10° NE
Cosmos 1844 Rocket 3.1 05:56:06 10° SW 06:01:26 41° NW 06:06:49 10° NNE
FALCON 9 DEB 4.0 05:59:52 11° NW 06:02:59 41° NNE 06:06:17 10° E
Cosmos 1707 Rocket 3.5 06:02:30 10° NNW 06:06:50 71° W 06:11:07 10° S
EXPRESS MD2 4.2 06:03:36 10° WNW 06:07:34 82° SSW 06:16:01 10° ESE
MOS 1-B 4.4 06:02:43 10° N 06:08:31 68° WNW 06:14:15 10° SSW
COSMOS 2455 2.8 06:03:30 10° SW 06:09:32 74° NW 06:15:36 10° NNE
RESURS DK-1 3.6 06:06:41 10° W 06:09:58 22° NW 06:13:16 10° N
BREEZE-M (TANK) 3.9 06:04:31 10° SW 06:10:55 41° SSE 06:13:24 10° E
ATLAS CENTAUR R/B 2.9 06:08:27 10° WNW 06:11:07 18° WSW 06:13:53 10° SSW
BREEZE-M DEB 4.3 06:03:27 10° WNW 06:11:36 35° SW 06:14:35 10° SSE
NOAA 6 4.1 06:06:38 10° N 06:11:38 54° WNW 06:16:36 10° SW
ATLAS 2AS CENTAUR R/B 3.6 06:05:52 10° W 06:13:04 35° NNW 06:20:04 10° NE
ERBS 4.4 06:11:48 10° NW 06:13:40 14° N 06:15:33 10° NE
H-2A R/B 3.9 06:11:03 10° NNW 06:14:10 23° WNW 06:17:15 10° WSW
Cosmos 1844 4.1 06:10:10 10° WSW 06:15:21 40° NW 06:20:37 10° NNE
USA 290 4.4 06:12:58 10° N 06:15:41 23° ENE 06:18:22 10° ESE
Lacrosse 5 2.7 06:12:09 10° W 06:16:43 32° NNW 06:21:17 10° NE
CZ-4B DEB 4.4 06:11:29 10° N 06:16:45 50° WNW 06:22:00 10° SW
Cosmos 1437 Rocket 3.6 06:14:04 10° NNW 06:17:19 28° W 06:20:34 10° SSW
Atlas Centaur 2 4.5 06:15:20 10° SW 06:17:21 12° SSW 06:19:13 10° S
Cosmos 372 Rocket 4.1 06:13:44 10° SW 06:18:41 50° WNW 06:23:40 10° NNE
Okean O Rocket 1.6 06:15:59 10° N 06:20:26 70° WNW 06:24:52 10° SSW
Geosat 4.1 06:16:34 10° SSE 06:21:35 87° WSW 06:26:40 10° NNW
